Regional Weather Roundup
Issued by NWS

Home | Current Version | Previous Version | Text Only | Print | Product List | Glossary Off
Versions: 1 2 3 4 5 6 7 8 9 10 11 12 13 14 15 16 17 18 19 20 21 22 23 24 25 26 27 28 29 30 31 32 33 34 35 36 37 38 39 40 41 42 43 44 45 46 47 48 49 50

000
ASUS45 KSLC 240210
RWRUT

UTAH REGIONAL WEATHER ROUNDUP
NATIONAL WEATHER SERVICE SALT LAKE CITY UT
800 PM MDT THU MAR 23 2017

UTZ001>011-023>025-240300-

NORTHERN UTAH

CITY           SKY/WX    TMP DP  RH WIND       PRES   REMARKS
BRIGHAM CITY     N/A     44  38  81 S7        30.00R
HILL AFB       NOT AVBL
LOGAN          MOCLDY    47  38  71 S8        29.97R
OGDEN          PTCLDY    37  36  96 S8        29.99R WCI  31
SALT LAKE CITY PTCLDY    42  38  85 CALM      30.00R
WENDOVER       CLEAR     51  21  30 NW16      30.01R
HEBER CITY     CLOUDY    39  34  81 CALM      29.96R

$$

UTZ011>015-024>027-240300-

CENTRAL/NORTHEAST UTAH

CITY           SKY/WX    TMP DP  RH WIND       PRES   REMARKS
PROVO AIRPORT  CLOUDY    43  36  76 NE8       29.99S
MOAB/CANYONLAN PTCLDY    47  34  60 W18       29.78R
DELTA          CLOUDY    34  34 100 S10       30.03R WCI  26
PRICE          PTCLDY    40  30  67 W10       29.86R WCI  33
RICHFIELD      CLOUDY    39  34  81 S14       30.01R WCI  31
ROOSEVELT      CLOUDY    48  34  57 NE5       29.84R
VERNAL         LGT RAIN  47  35  63 W7        29.82R

$$

UTZ013>016-019>022-027-240300-

SOUTHERN UTAH

CITY           SKY/WX    TMP DP  RH WIND       PRES   REMARKS
BRYCE CANYON   FLURRIES  31  26  82 NW23G31   29.95R WCI  18
CEDAR CITY     PTCLDY    38  28  67 NE9       30.03R WCI  31
MILFORD        PTCLDY   N/A N/A N/A N7        30.03R
ST GEORGE      CLOUDY    53  43  68 SE6       30.01R
HANKSVILLE     PTCLDY    46  36  66 NW8       29.86R
KANAB          PTCLDY    46  27  46 W10G17    30.02R
BLANDING       MOCLDY    43  29  56 NW10G16   29.88R

$$

REGIONAL REPORTS     COLORADO/ARIZONA

CITY           SKY/WX    TMP DP  RH WIND       PRES   REMARKS
CRAIG, CO      CLOUDY    46  33  60 N15G30    29.80R
GRAND JUNCTION CLOUDY    47  41  80 NE5       29.77R
RIFLE, CO      CLOUDY    49  34  56 W6        29.77R
MONTROSE, CO   CLOUDY    42  37  82 NW15      29.81R
CORTEZ, CO     LGT RAIN  39  35  86 SW7       29.84R WCI  34
COLORADO CITY    N/A     45  34  65 W8G16     30.05R
PAGE, AZ       MOCLDY    52  32  46 W10G18    29.88R
GRAND CANYON   MOCLDY    36  34  92 VRB5      30.01S WCI  32
KINGMAN, AZ    CLEAR     53  31  42 CALM      30.03R
FLAGSTAFF, AZ  CLOUDY    34  31  88 W13G24    30.02R WCI  25

$$

REGIONAL REPORTS    NEVADA/IDAHO/WYOMING

CITY           SKY/WX    TMP DP  RH WIND       PRES   REMARKS
LAS VEGAS, NV  PTCLDY    70  22  16 W7        29.95R
ELY, NY        CLEAR     39  24  55 W10       30.06R WCI  32
ELKO, NV       PTCLDY    46  26  45 W9        30.07R
POCATELLO, ID  PTCLDY    47  31  53 SW17      29.99R
BURLEY, ID     CLEAR     45  21  38 W10       30.01R
FORT BRIDGER,  CLOUDY    37  37  99 W9        29.98R WCI  30
EVANSTON, WY   CLOUDY    34  28  79 W10       29.97R WCI  26
ROCK SPRINGS,  CLOUDY    39  33  79 NE7       29.91R WCI  34
KEMMERER, WY     N/A     32  30  93 NW10      29.95R WCI  24

$$



USA.gov is the U.S. government's official web portal to all federal, state and local government web resources and services.